Погода Гулбене

Погода Гулбене : погода сейчас, прогноз погоды и архив. Всё, что Вы хотите узнать о погоде Гулбене!

Поиск расширенной информации на нашем сайте:

Другие новости

Новости СМИ2

Главная страница сайта

Новости сайта

03.07.2017

Напоминаем, что на нашем специализированном сайте Метеоцентр.Азия вы можете получить высокодетализированные автоматические прогнозы погоды по пунктам России, СНГ и мира в авиационном формате (включающие направление и скорость ветра, видимость, явления погоды, количество и форму облачности, нижнюю и верхнюю границу облачности).


Погода Гулбене - сегодня

Время (UTC), дата Ветер
(°,м/с) 
Видим.   Явления Облачность Т
(°С)
Тd
(°С)
f(%) Тe
(°С)
Pmin
(гПа)
dP
(гПа)
Po
(мм)
O2
(г/м3)
Тmin Tmax R s Состояние
почвы
03 10.12.17 140 (ЮВ) 2-2  н/о    н/о 
-1.3 -1.8 96 -2  1001.5  -0.9  738  299           
06 10.12.17 160 (Ю) 2-3  н/о    н/о 
-1.4 -2.4 93 -2  1001.1  -0.3  738  299           
09 10.12.17 220 (ЮЗ) 4-7  н/о    н/о 
-1.6 -5.3 76 -4  1001.3  0.1  738  300           
12 10.12.17 160 (Ю) 2-3  н/о    н/о 
-1.9 -5.7 75 -3  1000.7  -0.6  737  300           
15 10.12.17 200 (Ю) 2-3  н/о    н/о 
-1.1 -3.5 84 -2  1000.7  0.1  737  299           
18 10.12.17 140 (ЮВ) 1-2  н/о    н/о 
-1.2 -2.4 92 -1  1000.6  -0.2  737  299           
00 11.12.17 120 (ЮВ) 2-2  н/о    н/о 
-1.3 -2 95 -2  1000.5  -0.6  737  299           
03 11.12.17 140 (ЮВ) 2-4  н/о    н/о 
-1.5 -2.7 92 -2  1000.4  -0.2  737  299           
06 11.12.17 120 (ЮВ) 2-5  н/о    н/о 
-2.3 -3.9 89 -3  1000.7  0.3  737  300           
09 11.12.17 110 (В) 3-6  н/о    н/о 
-3.2 -4.4 91 -5  1001.4  0.7  738  301           
12 11.12.17 110 (В) 3-5  н/о    н/о 
-2.2 -4.1 87 -4  1000.5  -0.8  737  300           
18 11.12.17 110 (В) 3-6  н/о    н/о 
-2.1 -3.6 89 -4  1002.8  0.9  739  300           
21 11.12.17 110 (В) 3-6  н/о    н/о 
-1.7 -2.7 93 -4  1002.3  -0.4  738  300           
00 12.12.17 110 (В) 3-6  н/о    н/о 
-1.3 -1.9 96 -3  1002  -0.3  738  299           
03 12.12.17 110 (В) 3-6  н/о    н/о 
-0.7 -0.7 100 -3  1000.5  -1.4  737  298           
06 12.12.17 130 (ЮВ) 5-10  н/о    н/о 
+0.2 -0.3 96 -3  998.8  -1.7  736  296           
15 12.12.17 160 (Ю) 4-7  н/о    н/о 
+2.1 +1.5 96 994.1  0.2  733  293           
18 12.12.17 190 (Ю) 3-6  н/о    н/о 
+3.9 +3 94 +3  994.1  0.2  733  291           
21 12.12.17 200 (Ю) 4-8  н/о    н/о 
+5.4 +2.1 79 +4  994.9  0.8  733  289           
00 13.12.17 200 (Ю) 6-10  н/о    н/о 
+3.1 +0.7 84 995.9  0.8  734  292           
03 13.12.17 210 (ЮЗ) 6-11  н/о    н/о 
+2.6 -0.2 82 997.4  1.5  735  293           
06 13.12.17 240 (ЮЗ) 5-8  н/о    н/о 
+1.3 +0 91 -1  1002.5  4.8  739  296           
09 13.12.17 250 (З) 6-10  н/о    н/о 
+0.2 -1.4 89 -3  1006.1  3.5  741  299           
12 13.12.17 220 (ЮЗ) 4-8  н/о    н/о 
+0.8 -3.1 75 -2  1007.2  1.1  742  299           
15 13.12.17 210 (ЮЗ) 3-6  н/о    н/о 
+0.8 -1.1 87 -1  1008.1  0.8  743  299           
Время (UTC), дата Ветер
(°,м/с) 
Видим.   Явления Облачность Т
(°С)
Тd
(°С)
f(%) Тe
(°С)
Pmin
(гПа)
dP
(гПа)
Po
(мм)
O2
(г/м3)
Тmin Tmax R s Состояние
почвы

Для получения пояснительной информации подведите курсор к названию столбца.

ПОГОДА Гулбене - архив

Всё, что Вы хотите узнать о погоде Гулбене - удобно и подробно!

Выберите нужную дату (начиная с 1 января 2015* года) и нажмите кнопку "Найти".
Будут отображены архивные сводки погоды по пункту Гулбене, начиная с указанной даты.


Отображать данные в формате CSV (для использования в таблицах Excel)


Внимание! Наш архив погоды предназначен исключительно для личного некоммерческого использования в познавательных целях. Если Вам необходимы официальные справки о состоянии погоды (для производственных, юридических, коммерческих и т.п. целей), обращайтесь в органы Росгидромета.

*Примечание: данная дата относится к архиву по метеостанциям СССР (Россия, СНГ, Балтия).
Архив по метеостанциям Зарубежной Европы и Азии (кроме Китая) хранится 10 дней, по другим регионам земного шара (Китай, Африка, Америка, Австралия, Океания) - 1 день.

Гулбене - район местоположения метеостанции


Название, широта, долгота, высота метеостанции:
Гулбене 57.1°ш. 26.7°д. 143 м над ур. моря [Латвия]

Дополнительная информация

В oтличие oт бoльшинства пoгoдных сайтoв мы публикуем пoдрoбную метеoинфoрмацию в детальнoм прoфессиoнальнoм фoрмате.

Характеристики температуры и влажнoсти вoздуха измеряются на высoте 2 м в тени вдали oт зданий и деревьев.
Скoрoсть ветра измеряется на высoте 10 м (на урoвне рoста челoвека скoрoсть ветра ниже в 1.5-2 раза). Если метеoстанция нахoдится в гoрoде или в лесу, тo скoрoсть ветра занижена на 2-4 м/с пo сравнению с oткрытым местoм. Скoрoсть ветра над акватoриями крупных рек и oзёр, а также на вершинах хoлмoв на 2-5 м/с выше, чем в oбычных услoвиях.
Атмoсфернoе давление в разных тoчках местнoсти мoжет значительнo oтличаться oт давления на метеoстанции, в зависимoсти oт услoвий рельефа (при пoдъёме на 10 м давление пoнижается примернo на 1 мм рт.ст.).